This is the latest recevied weather packets stored in our database for station/object N0QV. If no packets are shown the sender has not sent any weather packets the latest 10 day(s).
| Time | Temp. | Humidity | Pressure | Rain* | Wind** | Luminosity | Snow |
|---|---|---|---|---|---|---|---|
| 1777858750 | 16.11° C | 35% | 1005.3 hPa | 0 mm | - | 0 W/m² | - |
| 1777858449 | 16.11° C | 34% | 1005.3 hPa | 0 mm | - | 0 W/m² | - |
| 1777858145 | 16.11° C | 34% | 1005.3 hPa | 0 mm | - | 0 W/m² | - |
| 1777857843 | 16.67° C | 33% | 1005.4 hPa | 0 mm | - | 0 W/m² | - |
| 1777857540 | 17.22° C | 32% | 1005.2 hPa | 0 mm | - | 1 W/m² | - |
| 1777857237 | 17.78° C | 31% | 1005.3 hPa | 0 mm | - | 5 W/m² | - |
| 1777856932 | 18.33° C | 31% | 1005.3 hPa | 0 mm | - | 7 W/m² | - |
| 1777856628 | 19.44° C | 30% | 1005.5 hPa | 0 mm | - | 10 W/m² | - |
| 1777856325 | 20° C | 28% | 1005.5 hPa | 0 mm | - | 12 W/m² | - |
| 1777856022 | 20° C | 27% | 1005.4 hPa | 0 mm | - | 14 W/m² | - |
| 1777855719 | 20.56° C | 26% | 1005.3 hPa | 0 mm | - | 17 W/m² | - |
| 1777855417 | 20.56° C | 27% | 1005.4 hPa | 0 mm | - | 20 W/m² | - |
| 1777855113 | 20.56° C | 26% | 1005.6 hPa | 0 mm | - | 23 W/m² | - |
| 1777854810 | 21.67° C | 25% | 1005.7 hPa | 0 mm | - | 30 W/m² | - |
| 1777854507 | 21.67° C | 26% | 1005.5 hPa | 0 mm | - | 37 W/m² | - |
| 1777854204 | 21.67° C | 24% | 1005.8 hPa | 0 mm | - | 42 W/m² | - |
| 1777853901 | 21.67° C | 25% | 1006 hPa | 0 mm | - | 50 W/m² | - |
| 1777853598 | 21.67° C | 26% | 1006 hPa | 0 mm | - | 67 W/m² | - |
| 1777853295 | 21.67° C | 25% | 1006 hPa | 0 mm | - | 72 W/m² | - |
| 1777852992 | 21.67° C | 26% | 1005.9 hPa | 0 mm | - | 81 W/m² | - |
| 1777852690 | 21.67° C | 26% | 1006 hPa | 0 mm | - | 87 W/m² | - |
| 1777852387 | 21.67° C | 25% | 1006 hPa | 0 mm | - | 84 W/m² | - |
| 1777852085 | 21.67° C | 26% | 1006 hPa | 0 mm | - | 97 W/m² | - |
| 1777851783 | 22.22° C | 25% | 1006.1 hPa | 0 mm | - | 102 W/m² | - |
| 1777851480 | 22.22° C | 26% | 1006.1 hPa | 0 mm | - | 110 W/m² | - |
* Rain latest hour (hover to see other rain measurements)
** Current wind speed in m/s (hover to see current wind gust speed)